TimePDT,TemperatureF,Dew PointF,Humidity,Sea Level PressureIn,VisibilityMPH,Wind Direction,Wind SpeedMPH,Gust SpeedMPH,PrecipitationIn,Events,Conditions,WindDirDegrees,DateUTC
12:15 AM,48.2,44.6,87,30.32,6.0,North,-9999.0,-,N/A,,Overcast,0,2013-11-01 07:15:00
12:35 AM,46.4,42.8,87,30.32,3.0,North,-9999.0,-,N/A,,Mostly Cloudy,0,2013-11-01 07:35:00
12:55 AM,46.4,42.8,87,30.32,3.0,North,-9999.0,-,N/A,,Mostly Cloudy,0,2013-11-01 07:55:00
1:15 AM,44.6,42.8,93,30.33,3.0,North,-9999.0,-,N/A,,Mostly Cloudy,0,2013-11-01 08:15:00
1:35 AM,44.6,42.8,93,30.33,5.0,North,-9999.0,-,N/A,,Scattered Clouds,0,2013-11-01 08:35:00
1:55 AM,44.6,42.8,93,30.33,5.0,North,-9999.0,-,N/A,,Mostly Cloudy,0,2013-11-01 08:55:00
2:15 AM,44.6,41.0,87,30.32,3.0,North,-9999.0,-,N/A,,Overcast,0,2013-11-01 09:15:00
2:35 AM,44.6,41.0,87,30.31,1.0,North,-9999.0,-,N/A,,Overcast,0,2013-11-01 09:35:00
2:55 AM,46.4,42.8,87,30.31,0.2,North,-9999.0,-,N/A,,Overcast,0,2013-11-01 09:55:00
3:15 AM,46.4,42.8,87,30.32,0.2,North,-9999.0,-,N/A,,Overcast,0,2013-11-01 10:15:00
3:35 AM,46.4,44.6,93,30.32,0.2,North,-9999.0,-,N/A,,Overcast,0,2013-11-01 10:35:00
3:55 AM,46.4,44.6,93,30.32,0.2,North,-9999.0,-,N/A,,Overcast,0,2013-11-01 10:55:00
4:15 AM,46.4,44.6,93,30.31,0.2,North,-9999.0,-,N/A,,Overcast,0,2013-11-01 11:15:00
4:35 AM,46.4,44.6,93,30.31,0.2,North,-9999.0,-,N/A,,Overcast,0,2013-11-01 11:35:00
4:55 AM,46.4,44.6,93,30.31,0.2,North,-9999.0,-,N/A,,Overcast,0,2013-11-01 11:55:00
5:15 AM,46.4,44.6,93,30.31,1.0,North,-9999.0,-,N/A,,Overcast,0,2013-11-01 12:15:00
5:35 AM,46.4,44.6,93,30.31,0.8,North,-9999.0,-,N/A,,Overcast,0,2013-11-01 12:35:00
5:55 AM,46.4,44.6,93,30.31,1.0,North,-9999.0,-,N/A,,Overcast,0,2013-11-01 12:55:00
6:15 AM,46.4,44.6,93,30.30,1.5,North,-9999.0,-,N/A,,Overcast,0,2013-11-01 13:15:00
6:35 AM,46.4,44.6,93,30.30,2.0,North,-9999.0,-,N/A,,Overcast,0,2013-11-01 13:35:00
6:55 AM,46.4,42.8,87,30.30,3.0,North,-9999.0,-,N/A,,Overcast,0,2013-11-01 13:55:00
7:15 AM,46.4,42.8,87,30.30,0.8,North,-9999.0,-,N/A,,Overcast,0,2013-11-01 14:15:00
7:35 AM,46.4,42.8,87,30.30,1.2,North,-9999.0,-,N/A,,Overcast,0,2013-11-01 14:35:00
7:55 AM,46.4,42.8,87,30.29,5.0,North,-9999.0,-,N/A,,Overcast,0,2013-11-01 14:55:00
8:15 AM,46.4,42.8,87,30.29,8.0,North,-9999.0,-,N/A,,Overcast,0,2013-11-01 15:15:00
8:35 AM,46.4,42.8,87,30.30,7.0,North,-9999.0,-,N/A,,Overcast,0,2013-11-01 15:35:00
8:55 AM,46.4,42.8,87,30.30,7.0,North,-9999.0,-,N/A,,Overcast,0,2013-11-01 15:55:00
9:15 AM,46.4,42.8,87,30.29,5.0,North,-9999.0,-,N/A,,Overcast,0,2013-11-01 16:15:00
9:35 AM,46.4,44.6,93,30.28,8.0,North,-9999.0,-,N/A,,Overcast,0,2013-11-01 16:35:00
9:55 AM,46.4,44.6,93,30.28,10.0,North,-9999.0,-,N/A,,Overcast,0,2013-11-01 16:55:00
10:15 AM,48.2,44.6,87,30.28,10.0,North,-9999.0,-,N/A,,Overcast,0,2013-11-01 17:15:00
10:35 AM,48.2,46.4,93,30.28,7.0,North,-9999.0,-,N/A,,Overcast,0,2013-11-01 17:35:00
10:55 AM,50.0,44.6,82,30.27,8.0,North,-9999.0,-,N/A,,Mostly Cloudy,0,2013-11-01 17:55:00
11:15 AM,51.8,46.4,82,30.27,9.0,North,-9999.0,-,N/A,,Scattered Clouds,0,2013-11-01 18:15:00
11:35 AM,51.8,46.4,82,30.27,10.0,North,-9999.0,-,N/A,,Partly Cloudy,0,2013-11-01 18:35:00
11:55 AM,53.6,46.4,77,30.26,10.0,North,-9999.0,-,N/A,,Clear,0,2013-11-01 18:55:00
12:15 PM,55.4,46.4,72,30.25,10.0,North,-9999.0,-,N/A,,Partly Cloudy,0,2013-11-01 19:15:00
12:35 PM,55.4,46.4,72,30.24,10.0,North,-9999.0,-,N/A,,Clear,0,2013-11-01 19:35:00
12:55 PM,55.4,46.4,72,30.22,10.0,North,-9999.0,-,N/A,,Clear,0,2013-11-01 19:55:00
1:15 PM,57.2,46.4,67,30.21,10.0,North,-9999.0,-,N/A,,Clear,0,2013-11-01 20:15:00
1:35 PM,57.2,46.4,67,30.19,10.0,North,-9999.0,-,N/A,,Clear,0,2013-11-01 20:35:00
1:55 PM,57.2,46.4,67,30.18,10.0,North,-9999.0,-,N/A,,Clear,0,2013-11-01 20:55:00
2:15 PM,59.0,48.2,67,30.17,10.0,North,-9999.0,-,N/A,,Clear,0,2013-11-01 21:15:00
2:35 PM,59.0,48.2,67,30.16,10.0,North,-9999.0,-,N/A,,Clear,0,2013-11-01 21:35:00
2:55 PM,59.0,48.2,67,30.15,10.0,North,-9999.0,-,N/A,,Clear,0,2013-11-01 21:55:00
3:15 PM,60.8,48.2,63,30.14,10.0,North,-9999.0,-,N/A,,Clear,0,2013-11-01 22:15:00
3:35 PM,60.8,46.4,59,30.13,10.0,North,-9999.0,-,N/A,,Clear,0,2013-11-01 22:35:00
3:55 PM,59.0,46.4,63,30.11,10.0,SSE,6.9,-,N/A,,Clear,150,2013-11-01 22:55:00
4:15 PM,57.2,46.4,67,30.10,10.0,SSE,4.6,-,N/A,,Clear,160,2013-11-01 23:15:00
4:35 PM,57.2,48.2,72,30.09,10.0,SSE,3.5,-,N/A,,Clear,160,2013-11-01 23:35:00
4:55 PM,57.2,48.2,72,30.09,10.0,SSE,4.6,-,N/A,,Clear,160,2013-11-01 23:55:00
5:15 PM,57.2,46.4,67,30.08,10.0,North,-9999.0,-,N/A,,Clear,0,2013-11-02 00:15:00
5:35 PM,55.4,46.4,72,30.06,10.0,North,-9999.0,-,N/A,,Clear,0,2013-11-02 00:35:00
5:55 PM,55.4,46.4,72,30.05,5.0,North,-9999.0,-,N/A,,Clear,0,2013-11-02 00:55:00
6:15 PM,55.4,46.4,72,30.04,10.0,North,-9999.0,-,N/A,,Clear,0,2013-11-02 01:15:00
6:35 PM,55.4,46.4,72,30.03,10.0,North,-9999.0,-,N/A,,Clear,0,2013-11-02 01:35:00
6:55 PM,55.4,46.4,72,30.02,10.0,North,-9999.0,-,N/A,,Clear,0,2013-11-02 01:55:00
7:15 PM,55.4,46.4,72,30.01,10.0,North,-9999.0,-,N/A,,Clear,0,2013-11-02 02:15:00
7:35 PM,55.4,46.4,72,30.01,10.0,North,-9999.0,-,N/A,,Mostly Cloudy,0,2013-11-02 02:35:00
7:55 PM,55.4,46.4,72,30.01,10.0,North,-9999.0,-,N/A,,Overcast,0,2013-11-02 02:55:00
8:15 PM,55.4,46.4,72,30.01,10.0,North,-9999.0,-,N/A,,Overcast,0,2013-11-02 03:15:00
8:35 PM,55.4,46.4,72,29.98,10.0,North,-9999.0,-,N/A,,Overcast,0,2013-11-02 03:35:00
8:55 PM,53.6,48.2,82,29.96,10.0,North,-9999.0,-,0.01,,Overcast,0,2013-11-02 03:55:00
9:15 PM,53.6,48.2,82,29.93,10.0,North,-9999.0,-,0.01,,Overcast,0,2013-11-02 04:15:00
9:35 PM,55.4,48.2,77,29.94,10.0,North,-9999.0,-,0.01,,Overcast,0,2013-11-02 04:35:00
9:55 PM,53.6,48.2,82,29.94,10.0,North,-9999.0,-,0.01,,Overcast,0,2013-11-02 04:55:00
10:15 PM,53.6,48.2,82,29.94,10.0,North,-9999.0,-,N/A,,Overcast,0,2013-11-02 05:15:00
10:35 PM,53.6,48.2,82,29.94,10.0,North,-9999.0,-,N/A,,Overcast,0,2013-11-02 05:35:00
10:55 PM,53.6,48.2,82,29.93,10.0,North,-9999.0,-,N/A,,Overcast,0,2013-11-02 05:55:00
11:15 PM,53.6,48.2,82,29.95,9.0,North,-9999.0,-,N/A,,Overcast,0,2013-11-02 06:15:00
11:35 PM,53.6,48.2,82,29.94,7.0,North,-9999.0,-,0.06,,Overcast,0,2013-11-02 06:35:00
11:55 PM,53.6,48.2,82,29.92,5.0,North,-9999.0,-,0.12,,Overcast,0,2013-11-02 06:55:00